EDT,Max TemperatureF,Mean TemperatureF,Min TemperatureF,Max Dew PointF,MeanDew PointF,Min DewpointF,Max Humidity, Mean Humidity, Min Humidity, Max Sea Level PressureIn, Mean Sea Level PressureIn, Min Sea Level PressureIn, Max VisibilityMiles, Mean VisibilityMiles, Min VisibilityMiles, Max Wind SpeedMPH, Mean Wind SpeedMPH, Max Gust SpeedMPH,PrecipitationIn, CloudCover, Events, WindDirDegrees
2013-9-1,85,75,64,69,66,61,93,74,55,29.84,29.78,29.72,10,7,4,14,5,17,T,6,Rain,158
2013-9-2,73,67,61,68,57,49,90,74,57,29.98,29.88,29.77,10,10,7,20,10,25,0.00,6,,328
2013-9-3,76,67,57,54,51,48,80,62,43,30.06,30.03,29.97,10,10,10,16,8,22,0.00,3,,297
2013-9-4,82,70,57,60,57,53,93,68,42,30.12,30.07,30.04,10,10,7,21,10,24,0.00,2,,252
2013-9-5,73,63,52,59,47,41,89,62,34,30.30,30.24,30.14,10,10,10,14,5,17,0.00,2,,51
2013-9-6,80,65,50,54,49,45,89,62,35,30.28,30.19,30.04,10,10,10,13,6,16,0.00,3,,175
2013-9-7,81,73,64,65,61,54,79,69,58,30.04,29.97,29.91,10,10,9,20,7,23,0.01,5,Rain,225
2013-9-8,78,70,62,64,59,54,93,70,47,30.10,30.04,29.97,10,9,5,20,10,24,0.00,6,,61
2013-9-9,84,72,59,71,63,54,93,76,59,30.06,29.97,29.85,10,8,2,14,8,20,0.76,5,Rain-Thunderstorm,146
2013-9-10,94,86,77,71,66,62,74,55,36,29.99,29.94,29.85,10,10,7,24,12,33,T,0,,225
2013-9-11,88,79,69,68,65,61,90,67,43,30.05,29.99,29.96,10,10,7,18,9,25,T,5,Rain,244
2013-9-12,78,66,54,66,56,46,93,67,40,30.05,29.96,29.92,10,10,7,23,10,29,0.00,3,,318
2013-9-13,65,56,46,46,41,35,80,58,36,30.16,30.12,30.06,10,10,10,18,8,24,0.00,3,,3
2013-9-14,70,56,41,49,43,38,89,66,42,30.21,30.15,30.08,10,10,10,18,6,24,0.00,3,,231
2013-9-15,60,56,51,56,52,44,93,79,64,30.17,30.10,30.06,10,7,2,12,5,31,0.10,7,Rain,184
2013-9-16,62,53,44,55,48,41,89,72,55,30.40,30.30,30.17,10,9,5,16,7,25,T,6,Rain,20
2013-9-17,69,54,38,48,42,37,92,67,42,30.43,30.34,30.22,10,10,7,13,6,,0.00,3,,115
2013-9-18,79,65,51,56,51,46,89,64,39,30.20,30.09,29.99,10,10,10,16,7,21,T,4,Rain,157
2013-9-19,76,69,61,67,62,53,93,83,72,30.01,29.95,29.85,10,9,3,16,8,21,0.10,6,Rain-Thunderstorm,171
2013-9-20,74,68,62,70,65,57,90,82,73,29.88,29.79,29.74,10,9,5,20,11,23,0.03,6,Rain-Thunderstorm,231
2013-9-21,67,61,54,57,49,44,86,67,48,29.94,29.81,29.73,10,10,10,20,10,24,0.00,6,,310
2013-9-22,55,49,43,45,42,39,86,71,55,30.11,30.04,29.94,10,10,10,13,5,16,0.00,7,,13
2013-9-23,65,52,38,45,41,36,92,68,44,30.20,30.15,30.12,10,10,10,16,5,22,0.00,2,Fog,109
2013-9-24,70,56,41,48,44,39,89,65,40,30.16,30.09,30.01,10,9,5,13,6,20,0.00,0,,93
2013-9-25,73,59,45,49,47,43,93,67,40,30.04,30.01,29.98,10,9,5,13,6,18,0.00,2,,66
2013-9-26,76,60,44,52,48,42,93,65,36,30.14,30.10,30.02,10,9,6,9,4,14,0.00,0,,65
2013-9-27,80,63,46,54,49,44,93,64,35,30.24,30.19,30.15,10,10,9,14,6,18,0.00,1,,121
2013-9-28,81,66,50,55,52,48,96,66,35,30.17,30.10,29.95,10,8,1,20,9,25,0.00,4,,137
2013-9-29,71,62,53,61,53,48,90,69,47,30.03,29.98,29.92,10,9,2,22,6,29,0.21,6,Rain,304
2013-9-30,73,63,52,54,50,47,100,71,41,30.03,29.99,29.92,10,8,0,14,4,15,0.00,6,Fog,132